WAT864 LROP-LBSF

Flight info

Callsign WAT864
Flight time 0h 40m
Altitude 34000
Route POLUN DCT TIMUR N181 GOL
Aircraft MD11/H-SDE1E2E3FGHIJ2J3J4J5M1RWXY/LB1D1

Departure

Time 2026-05-06 11:25
Airport Bucharest Henri Coandă International Airport (LROP)

Arrival

Time 2026-05-06 12:06
Airport Sofia Airport (LBSF)
Time Latitude Longitude Altitude Speed Heading
2026-05-06 10:59 44.57088 26.08261 330 ft 0 kts 264°
2026-05-06 11:17 44.57089 26.08266 326 ft 3 kts 264°
2026-05-06 11:17 44.57092 26.08304 328 ft 4 kts 264°
2026-05-06 11:18 44.57094 26.08337 326 ft 2 kts 264°
2026-05-06 11:18 44.57095 26.08363 326 ft 4 kts 303°
2026-05-06 11:18 44.57082 26.08378 325 ft 4 kts 351°
2026-05-06 11:18 44.57057 26.08382 326 ft 4 kts 354°
2026-05-06 11:19 44.57036 26.08385 325 ft 0 kts 354°
2026-05-06 11:21 44.57050 26.08383 327 ft 4 kts 354°
2026-05-06 11:21 44.57093 26.08377 325 ft 8 kts 354°
2026-05-06 11:22 44.57165 26.08366 329 ft 13 kts 354°
2026-05-06 11:22 44.57222 26.08385 326 ft 4 kts 46°
2026-05-06 11:22 44.57231 26.08439 327 ft 10 kts 74°
2026-05-06 11:22 44.57304 26.08491 328 ft 16 kts
2026-05-06 11:23 44.57425 26.08478 328 ft 18 kts 354°
2026-05-06 11:23 44.57526 26.08463 328 ft 8 kts 354°
2026-05-06 11:23 44.57587 26.08454 328 ft 9 kts 354°
2026-05-06 11:23 44.57642 26.08451 326 ft 6 kts 13°
2026-05-06 11:24 44.57665 26.08485 326 ft 5 kts 64°
2026-05-06 11:24 44.57671 26.08556 331 ft 14 kts 84°
2026-05-06 11:24 44.57703 26.08980 327 ft 84 kts 84°
2026-05-06 11:24 44.57792 26.10152 330 ft 155 kts 84°
2026-05-06 11:25 44.57940 26.11811 745 ft 174 kts 85°
2026-05-06 11:25 44.58089 26.13556 1455 ft 185 kts 87°
2026-05-06 11:25 44.58216 26.15334 2354 ft 183 kts 87°
2026-05-06 11:25 44.58355 26.17126 3138 ft 187 kts 87°
2026-05-06 11:26 44.58484 26.18966 3817 ft 196 kts 88°
2026-05-06 11:26 44.58621 26.21066 3967 ft 232 kts 86°
2026-05-06 11:26 44.58786 26.23417 4398 ft 250 kts 85°
2026-05-06 11:26 44.58969 26.25884 5102 ft 260 kts 83°
2026-05-06 11:27 44.59037 26.28466 5851 ft 271 kts 96°
2026-05-06 11:27 44.58489 26.31030 6640 ft 282 kts 118°
2026-05-06 11:27 44.57141 26.33058 7424 ft 292 kts 147°
2026-05-06 11:27 44.55222 26.33989 8279 ft 295 kts 172°
2026-05-06 11:28 44.53172 26.34151 9181 ft 296 kts 187°
2026-05-06 11:28 44.51220 26.33296 10043 ft 296 kts 213°
2026-05-06 11:28 44.49743 26.31349 10789 ft 293 kts 238°
2026-05-06 11:28 44.48658 26.28780 10923 ft 320 kts 244°
2026-05-06 11:29 44.47616 26.25883 11077 ft 346 kts 245°
2026-05-06 11:29 44.46514 26.22760 11366 ft 365 kts 245°
2026-05-06 11:29 44.45366 26.19563 12138 ft 370 kts 245°
2026-05-06 11:29 44.44186 26.16336 12889 ft 375 kts 244°
2026-05-06 11:30 44.42979 26.13078 13635 ft 379 kts 244°
2026-05-06 11:30 44.41751 26.09794 14312 ft 383 kts 244°
2026-05-06 11:30 44.40502 26.06471 14936 ft 388 kts 244°
2026-05-06 11:30 44.39238 26.03118 15545 ft 392 kts 243°
2026-05-06 11:31 44.37956 25.99728 16144 ft 396 kts 243°
2026-05-06 11:31 44.36678 25.96353 16741 ft 400 kts 243°
2026-05-06 11:31 44.35351 25.92852 17315 ft 404 kts 243°
2026-05-06 11:31 44.34047 25.89414 17880 ft 408 kts 243°
2026-05-06 11:32 44.32711 25.85898 18425 ft 411 kts 243°
2026-05-06 11:32 44.31369 25.82374 18958 ft 412 kts 243°
2026-05-06 11:32 44.30019 25.78829 19431 ft 415 kts 243°
2026-05-06 11:32 44.28659 25.75263 19894 ft 418 kts 243°
2026-05-06 11:33 44.27295 25.71690 20338 ft 420 kts 243°
2026-05-06 11:33 44.25914 25.68079 20804 ft 423 kts 244°
2026-05-06 11:33 44.24522 25.64443 21269 ft 426 kts 244°
2026-05-06 11:33 44.23122 25.60791 21736 ft 429 kts 244°
2026-05-06 11:34 44.21710 25.57114 22225 ft 431 kts 244°
2026-05-06 11:34 44.20292 25.53426 22750 ft 433 kts 244°
2026-05-06 11:34 44.18861 25.49708 23238 ft 436 kts 244°
2026-05-06 11:34 44.17424 25.45979 23708 ft 439 kts 244°
2026-05-06 11:35 44.15973 25.42218 24151 ft 442 kts 244°
2026-05-06 11:35 44.14514 25.38443 24584 ft 444 kts 244°
2026-05-06 11:35 44.13047 25.34650 25051 ft 446 kts 244°
2026-05-06 11:35 44.11569 25.30841 25528 ft 448 kts 244°
2026-05-06 11:36 44.10070 25.27019 25971 ft 451 kts 244°
2026-05-06 11:36 44.08560 25.23185 26446 ft 453 kts 244°
2026-05-06 11:36 44.07048 25.19341 26936 ft 454 kts 244°
2026-05-06 11:36 44.05533 25.15478 27384 ft 456 kts 245°
2026-05-06 11:37 44.04013 25.11595 27830 ft 459 kts 245°
2026-05-06 11:37 44.02486 25.07688 28259 ft 461 kts 245°
2026-05-06 11:37 44.00949 25.03760 28709 ft 464 kts 245°
2026-05-06 11:37 43.99404 24.99814 29159 ft 467 kts 245°
2026-05-06 11:38 43.97846 24.95843 29584 ft 470 kts 245°
2026-05-06 11:38 43.96277 24.91849 29996 ft 472 kts 245°
2026-05-06 11:38 43.94701 24.87841 30336 ft 475 kts 245°
2026-05-06 11:38 43.93112 24.83808 30649 ft 477 kts 245°
2026-05-06 11:39 43.91512 24.79756 30940 ft 480 kts 245°
2026-05-06 11:39 43.89909 24.75700 31297 ft 480 kts 245°
2026-05-06 11:39 43.88304 24.71647 31691 ft 479 kts 245°
2026-05-06 11:39 43.86700 24.67604 32059 ft 479 kts 245°
2026-05-06 11:40 43.85119 24.63621 32426 ft 478 kts 245°
2026-05-06 11:40 43.83518 24.59595 32776 ft 477 kts 246°
2026-05-06 11:40 43.81916 24.55571 33130 ft 476 kts 246°
2026-05-06 11:40 43.80320 24.51568 33528 ft 474 kts 246°
2026-05-06 11:41 43.78728 24.47581 33892 ft 473 kts 246°
2026-05-06 11:41 43.75450 24.39644 33994 ft 478 kts 242°
2026-05-06 11:42 43.71217 24.32465 33998 ft 489 kts 227°
2026-05-06 11:42 43.65588 24.27040 34001 ft 500 kts 211°
2026-05-06 11:43 43.58957 24.23890 34002 ft 511 kts 194°
2026-05-06 11:43 43.51837 24.23028 33994 ft 516 kts 184°
2026-05-06 11:44 43.41059 24.22977 34001 ft 517 kts 183°
2026-05-06 11:44 43.33853 24.22834 34011 ft 518 kts 184°
2026-05-06 11:45 43.26643 24.22612 34006 ft 518 kts 184°
2026-05-06 11:45 43.19466 24.22059 34013 ft 514 kts 192°
2026-05-06 11:46 43.12678 24.19414 34012 ft 503 kts 210°
2026-05-06 11:46 43.06914 24.14283 34022 ft 490 kts 227°
2026-05-06 11:47 43.03128 24.08675 33834 ft 476 kts 239°
2026-05-06 11:47 43.01287 24.04967 33601 ft 470 kts 243°
2026-05-06 11:47 42.99586 24.01151 33177 ft 470 kts 245°
2026-05-06 11:48 42.97933 23.97325 32610 ft 470 kts 244°
2026-05-06 11:48 42.96267 23.93497 32005 ft 469 kts 244°
2026-05-06 11:48 42.94576 23.89678 31384 ft 471 kts 243°
2026-05-06 11:48 42.92866 23.85882 30756 ft 468 kts 243°
2026-05-06 11:49 42.91151 23.82123 30136 ft 464 kts 243°
2026-05-06 11:49 42.89448 23.78416 29433 ft 459 kts 243°
2026-05-06 11:49 42.87759 23.74750 28771 ft 454 kts 242°
2026-05-06 11:49 42.86086 23.71120 28153 ft 450 kts 242°
2026-05-06 11:50 42.83894 23.66369 27347 ft 444 kts 242°
2026-05-06 11:50 42.82787 23.63972 26959 ft 441 kts 242°
2026-05-06 11:50 42.81161 23.60453 26372 ft 437 kts 241°
2026-05-06 11:50 42.79554 23.56958 25790 ft 433 kts 242°
2026-05-06 11:51 42.78181 23.53349 25194 ft 426 kts 252°
2026-05-06 11:51 42.77457 23.49494 24503 ft 418 kts 266°
2026-05-06 11:51 42.77404 23.45582 23750 ft 411 kts 275°
2026-05-06 11:51 42.77664 23.41731 23033 ft 407 kts 278°
2026-05-06 11:52 42.77999 23.37930 22360 ft 403 kts 278°
2026-05-06 11:52 42.78321 23.34162 21873 ft 399 kts 278°
2026-05-06 11:52 42.78609 23.30414 21597 ft 397 kts 277°
2026-05-06 11:52 42.78864 23.26726 21471 ft 382 kts 276°
2026-05-06 11:53 42.79085 23.23231 21372 ft 359 kts 276°
2026-05-06 11:53 42.79279 23.19947 21244 ft 338 kts 276°
2026-05-06 11:53 42.79458 23.16852 21111 ft 317 kts 276°
2026-05-06 11:53 42.79618 23.14035 20977 ft 288 kts 276°
2026-05-06 11:54 42.79770 23.11366 20437 ft 275 kts 276°
2026-05-06 11:54 42.79919 23.08806 19748 ft 271 kts 276°
2026-05-06 11:54 42.80063 23.06304 19066 ft 269 kts 275°
2026-05-06 11:54 42.80211 23.03729 18392 ft 267 kts 275°
2026-05-06 11:55 42.80353 23.01252 17670 ft 265 kts 275°
2026-05-06 11:55 42.80496 22.98764 16983 ft 261 kts 275°
2026-05-06 11:55 42.80634 22.96317 16326 ft 258 kts 275°
2026-05-06 11:55 42.80771 22.93887 15659 ft 257 kts 274°
2026-05-06 11:56 42.80906 22.91480 15042 ft 253 kts 274°
2026-05-06 11:56 42.81038 22.89112 14501 ft 249 kts 274°
2026-05-06 11:56 42.81166 22.86775 13931 ft 247 kts 274°
2026-05-06 11:56 42.81252 22.84436 13218 ft 248 kts 267°
2026-05-06 11:57 42.80908 22.82155 12572 ft 245 kts 245°
2026-05-06 11:57 42.79884 22.80346 11962 ft 243 kts 216°
2026-05-06 11:57 42.78332 22.79485 11340 ft 244 kts 186°
2026-05-06 11:57 42.76644 22.79752 10361 ft 257 kts 161°
2026-05-06 11:58 42.75178 22.81225 9607 ft 261 kts 127°
2026-05-06 11:58 42.74449 22.83376 9373 ft 245 kts 108°
2026-05-06 11:58 42.74050 22.85616 8786 ft 245 kts 104°
2026-05-06 11:58 42.73692 22.87892 8228 ft 244 kts 104°
2026-05-06 11:59 42.73336 22.90134 7872 ft 243 kts 104°
2026-05-06 11:59 42.72973 22.92361 7630 ft 238 kts 105°
2026-05-06 11:59 42.72605 22.94577 7576 ft 240 kts 104°
2026-05-06 11:59 42.72327 22.96827 7490 ft 242 kts 99°
2026-05-06 12:00 42.72170 22.99111 7243 ft 242 kts 97°
2026-05-06 12:00 42.72043 23.01378 7003 ft 240 kts 96°
2026-05-06 12:00 42.71917 23.03633 6731 ft 238 kts 97°
2026-05-06 12:00 42.71789 23.05865 6461 ft 236 kts 97°
2026-05-06 12:01 42.71660 23.08077 6160 ft 234 kts 96°
2026-05-06 12:01 42.71532 23.10257 5874 ft 227 kts 97°
2026-05-06 12:01 42.71408 23.12354 5596 ft 219 kts 98°
2026-05-06 12:01 42.71286 23.14407 5334 ft 217 kts 98°
2026-05-06 12:02 42.71163 23.16449 5060 ft 215 kts 98°
2026-05-06 12:02 42.71046 23.18422 4786 ft 202 kts 97°
2026-05-06 12:02 42.70938 23.20278 4519 ft 193 kts 96°
2026-05-06 12:02 42.70821 23.22092 4248 ft 193 kts 96°
2026-05-06 12:03 42.70703 23.23904 4081 ft 194 kts 96°
2026-05-06 12:03 42.70567 23.25738 3850 ft 194 kts 96°
2026-05-06 12:03 42.70453 23.27530 3586 ft 186 kts 94°
2026-05-06 12:03 42.70388 23.29252 3372 ft 180 kts 93°
2026-05-06 12:04 42.70285 23.30949 3129 ft 181 kts 95°
2026-05-06 12:04 42.70169 23.32659 2867 ft 182 kts 94°
2026-05-06 12:04 42.70076 23.34383 2611 ft 183 kts 92°
2026-05-06 12:04 42.69991 23.36107 2360 ft 181 kts 94°
2026-05-06 12:05 42.69881 23.37780 2131 ft 176 kts 96°
2026-05-06 12:05 42.69776 23.39427 1893 ft 175 kts 95°
2026-05-06 12:05 42.69688 23.41001 1796 ft 147 kts 94°
2026-05-06 12:05 42.69623 23.42115 1792 ft 89 kts 95°
2026-05-06 12:06 42.69509 23.42707 1794 ft 47 kts 124°
2026-05-06 12:06 42.69385 23.42970 1795 ft 23 kts 105°
2026-05-06 12:06 42.69377 23.43124 1796 ft 10 kts 94°
2026-05-06 12:06 42.69373 23.43183 1803 ft 0 kts 95°